Date,TemperatureHighF,TemperatureAvgF,TemperatureLowF,DewpointHighF,DewpointAvgF,DewpointLowF,HumidityHigh,HumidityAvg,HumidityLow,PressureMaxIn,PressureMinIn,WindSpeedMaxMPH,WindSpeedAvgMPH,GustSpeedMaxMPH,PrecipitationSumIn
2013-1-1,41,39,31,28,24,14,62,55,49,29.91,29.74,13,4,13,0.12
2013-1-2,34,29,25,15,12,9,52,48,45,30.09,29.91,12,3,12,0.12
2013-1-3,34,29,24,16,13,11,63,52,44,30.12,30.00,10,2,10,0.12
2013-1-4,38,33,28,20,18,16,61,54,49,30.03,29.88,17,5,17,0.12
2013-1-5,41,34,29,22,18,15,67,54,46,30.21,29.94,12,3,12,0.12
2013-1-6,46,37,32,34,28,20,89,70,51,30.15,29.88,10,1,10,0.12
2013-1-7,46,38,29,28,25,20,76,58,44,30.33,29.97,9,2,9,0.00
2013-1-8,49,35,24,32,26,19,85,70,50,30.33,30.27,12,2,12,0.12
2013-1-9,52,43,31,39,34,27,85,72,53,30.30,30.06,12,2,12,0.12
2013-1-10,49,43,34,32,25,21,71,51,40,30.45,30.18,15,2,15,0.00
2013-1-11,49,42,34,46,35,24,96,76,59,30.42,29.97,11,1,11,0.51
2013-1-12,48,46,44,47,45,44,98,96,94,30.06,29.97,5,0,5,0.04
2013-1-13,54,49,43,52,47,42,97,95,87,30.06,29.91,8,1,8,0.00
2013-1-14,57,53,40,56,48,29,98,83,49,30.18,29.83,8,2,8,0.04
2013-1-15,40,39,36,37,30,25,92,72,57,30.24,30.09,8,1,8,0.31
2013-1-16,38,36,34,37,35,31,97,94,83,30.12,29.71,8,2,8,0.63
2013-1-17,44,40,38,37,30,26,95,71,52,30.00,29.85,11,2,11,0.00
2013-1-18,38,31,25,27,14,7,69,51,38,30.42,29.91,13,3,13,0.00
2013-1-19,51,39,25,29,22,11,68,52,41,30.33,29.85,14,4,14,0.00
2013-1-20,55,44,32,33,23,9,59,45,27,29.94,29.62,19,6,19,0.00
2013-1-21,35,30,26,21,12,7,76,47,39,30.00,29.74,8,2,8,0.00
2013-1-22,26,20,14,12,-1,-8,54,41,33,30.15,29.77,20,6,20,0.00
2013-1-23,21,15,11,1,-4,-10,47,41,37,30.18,30.09,14,4,14,0.00
2013-1-24,25,18,12,4,-3,-18,56,40,14,30.33,30.03,14,3,14,0.00
2013-1-25,26,18,11,11,2,-6,67,48,38,30.36,29.97,9,2,9,0.00
2013-1-26,27,19,6,10,5,-2,72,55,43,30.30,29.97,14,2,14,0.00
2013-1-27,33,23,11,14,7,-2,61,51,43,30.45,30.30,9,2,9,0.00
2013-1-28,36,30,20,34,24,9,94,77,61,30.42,29.94,10,2,10,0.08
2013-1-29,52,42,32,45,39,31,96,87,73,30.06,29.91,6,1,6,0.00
2013-1-30,67,56,41,60,53,41,98,90,76,29.94,29.26,16,4,16,0.08
2013-1-31,62,46,30,60,30,10,95,56,38,29.74,29.00,27,9,27,0.55
2013-2-1,32,28,23,16,8,2,61,41,32,30.18,29.74,15,5,15,0.00
2013-2-2,32,25,18,17,6,1,68,45,35,30.24,29.94,14,4,14,0.00
2013-2-3,32,27,22,21,18,14,81,68,55,29.94,29.71,9,1,9,0.00
2013-2-4,30,26,21,22,10,6,80,49,42,29.94,29.74,15,4,15,0.00
2013-2-5,34,31,28,30,25,14,89,79,55,29.88,29.77,5,1,5,0.00
2013-2-6,39,33,26,30,22,13,90,66,44,30.27,29.83,15,2,15,0.04
2013-2-7,35,28,23,23,15,13,72,57,50,30.39,30.18,8,1,8,0.00
2013-2-8,41,37,31,40,34,23,97,89,63,30.18,29.53,13,3,13,0.35
2013-2-9,34,29,21,31,16,3,96,61,43,30.27,29.65,18,4,18,0.08
2013-2-10,38,26,14,18,10,1,59,50,39,30.42,30.21,5,1,5,0.00
2013-2-11,53,43,31,53,40,18,98,89,58,30.24,29.53,12,2,12,0.28
2013-2-12,47,42,31,42,25,20,86,52,42,29.88,29.65,17,4,17,0.00
2013-2-13,45,35,26,31,25,20,92,67,48,29.88,29.59,6,1,6,0.00
2013-2-14,46,38,32,34,31,26,95,78,51,29.94,29.62,10,2,10,0.12
2013-2-15,52,36,30,38,31,28,94,85,54,29.94,29.88,10,1,10,0.12
2013-2-16,41,36,31,33,23,13,88,61,46,29.85,29.65,10,4,10,0.12
2013-2-17,32,28,21,13,6,-3,46,38,31,29.94,29.59,26,7,26,0.00
2013-2-18,36,27,19,11,5,-2,44,39,33,30.18,29.94,16,5,16,0.12
2013-2-19,51,39,28,44,28,9,94,66,44,30.12,29.59,17,3,17,0.28
2013-2-20,39,32,25,26,14,6,59,47,41,29.94,29.65,26,6,26,0.12
2013-2-21,35,29,24,14,10,6,49,45,41,30.18,29.91,15,6,15,0.12
2013-2-22,39,31,23,29,18,8,82,58,49,30.30,30.15,8,2,8,0.12
2013-2-23,47,41,34,46,40,29,97,94,83,30.15,29.68,10,1,10,0.20
2013-2-24,48,39,33,38,30,18,97,72,47,29.91,29.65,15,4,15,0.12
2013-2-25,45,37,29,26,22,17,71,54,46,30.12,29.91,7,2,7,0.12
2013-2-26,46,36,27,39,28,22,96,73,50,30.15,29.68,14,4,14,0.16
2013-2-27,53,46,40,51,42,36,98,86,57,29.71,29.41,14,3,14,0.20
2013-2-28,48,43,37,39,32,25,90,65,46,29.56,29.47,10,2,10,0.12
2013-3-1,47,40,33,30,26,21,81,59,44,29.71,29.53,12,3,12,0.12
2013-3-2,42,36,32,23,20,16,56,51,44,29.71,29.59,9,4,9,0.12
2013-3-3,38,33,28,18,16,13,53,49,44,29.71,29.59,13,4,13,0.12
2013-3-4,41,34,28,20,16,12,53,46,41,29.85,29.68,17,5,17,0.12
2013-3-5,47,36,32,25,20,17,67,52,41,29.94,29.83,14,2,14,0.12
2013-3-6,41,38,33,36,32,23,92,78,67,29.85,29.62,20,6,20,0.12
2013-3-7,44,38,34,33,29,24,92,70,53,29.97,29.80,10,4,10,0.12
2013-3-8,40,35,31,36,30,24,94,85,55,30.09,29.91,9,2,9,0.08
2013-3-9,57,42,32,28,23,9,65,49,17,30.21,30.09,9,2,10,0.08
2013-3-10,52,40,28,34,28,22,81,63,48,30.27,30.18,9,2,9,0.00
2013-3-11,60,45,34,48,38,30,93,78,50,30.21,29.97,11,2,11,0.08
2013-3-12,59,53,46,57,49,37,96,87,69,29.97,29.56,13,4,13,0.35
2013-3-13,51,43,34,37,27,20,80,55,37,29.83,29.71,17,4,17,0.00
2013-3-14,42,36,31,20,14,8,52,41,30,29.88,29.80,22,6,22,0.00
2013-3-15,51,40,29,26,17,8,48,40,33,29.91,29.62,21,5,21,0.00
2013-3-16,44,37,34,31,26,21,88,66,48,29.83,29.65,6,1,6,0.00
2013-3-17,39,34,29,31,22,15,89,62,42,30.21,29.83,10,2,10,0.04
2013-3-18,42,34,29,37,23,12,95,65,47,30.27,29.83,14,4,14,0.28
2013-3-19,50,42,37,39,34,17,97,77,39,29.83,29.59,13,3,13,0.24
2013-3-20,47,39,31,21,17,14,49,41,30,29.83,29.68,19,4,19,0.00
2013-3-21,40,35,30,24,17,10,73,49,37,29.71,29.53,15,3,15,0.00
2013-3-22,42,34,28,19,15,9,53,44,39,29.83,29.68,16,5,16,0.00
2013-3-23,47,38,30,22,18,14,53,44,35,29.85,29.74,13,4,13,0.00
2013-3-24,49,39,28,24,19,13,55,44,35,29.88,29.59,9,2,9,0.00
2013-3-25,39,36,33,34,30,22,95,80,54,29.59,29.35,10,1,10,0.43
2013-3-26,50,43,35,34,31,26,94,66,42,29.77,29.50,11,1,11,0.00
2013-3-27,52,43,36,29,26,23,66,51,37,29.91,29.77,14,3,14,0.00
2013-3-28,49,43,35,29,26,24,66,52,41,30.03,29.88,11,2,11,0.00
2013-3-29,55,46,37,29,26,23,57,46,36,30.06,29.97,10,2,10,0.00
2013-3-30,58,46,33,32,26,21,76,48,27,30.09,29.97,11,2,11,0.00
2013-3-31,58,46,33,48,34,23,95,65,38,30.03,29.59,12,2,12,0.20
2013-4-1,65,52,39,48,38,16,95,64,37,29.83,29.53,16,5,16,0.00
2013-4-2,45,39,32,17,13,8,43,35,23,30.00,29.83,20,4,20,0.00
2013-4-3,47,40,32,17,10,-6,41,31,12,30.21,30.00,19,5,19,0.00
2013-4-4,56,41,28,27,17,7,51,38,28,30.30,30.00,10,2,10,0.00
2013-4-5,63,49,39,39,24,-6,85,46,6,30.00,29.62,12,2,12,0.04
2013-4-6,51,43,35,24,17,3,56,36,14,30.21,29.88,8,3,8,0.00
2013-4-7,63,49,34,42,34,22,73,57,37,30.21,29.91,16,3,16,0.00
2013-4-8,76,61,46,49,44,40,81,57,36,29.97,29.85,13,2,13,0.00
2013-4-9,82,71,57,54,49,46,74,49,29,29.88,29.80,17,3,17,0.00
2013-4-10,87,68,58,59,52,45,91,57,35,29.83,29.68,17,3,17,0.20
2013-4-11,66,58,48,63,53,43,96,85,64,29.88,29.68,15,3,15,0.04
2013-4-12,48,45,44,46,44,43,97,95,84,29.85,29.56,16,4,16,0.67
2013-4-13,60,51,41,46,39,34,97,69,39,29.88,29.62,12,2,12,0.00
2013-4-14,60,52,40,45,36,29,90,58,34,30.09,29.88,20,2,20,0.00
2013-4-15,60,52,46,39,33,28,70,49,40,30.27,30.09,12,4,12,0.00
2013-4-16,72,60,48,53,48,39,84,67,49,30.27,30.03,13,3,13,0.00
2013-4-17,70,61,51,57,47,39,91,63,35,30.18,30.00,10,2,10,0.00
2013-4-18,65,56,48,57,47,39,94,74,51,30.21,29.97,13,3,13,0.00
2013-4-19,78,67,58,66,61,57,96,82,60,29.97,29.56,18,5,18,0.04
2013-4-20,65,53,48,62,36,23,92,54,34,30.21,29.59,13,5,13,0.12
2013-4-21,53,46,37,27,23,15,55,39,36,30.50,30.21,10,3,10,0.00
2013-4-22,51,44,34,33,30,26,78,57,47,30.53,30.36,13,4,13,0.00
2013-4-23,49,46,42,41,37,32,85,71,53,30.36,30.03,10,2,10,0.00
2013-4-24,73,56,37,52,45,34,87,69,45,30.03,29.74,15,3,15,0.00
2013-4-25,63,55,45,54,34,28,83,46,29,30.18,29.80,19,4,19,0.00
2013-4-26,65,54,39,41,34,28,80,50,27,30.30,30.18,13,2,14,0.00
2013-4-27,69,55,39,38,33,29,79,48,26,30.33,30.18,11,2,11,0.00
2013-4-28,73,57,41,43,35,27,79,47,27,30.21,30.09,12,2,12,0.00
2013-4-29,56,54,52,54,50,38,94,85,52,30.12,30.03,14,2,14,0.12
2013-4-30,66,57,48,51,42,29,93,60,36,30.21,30.06,13,3,13,0.00
2013-5-1,66,54,40,42,38,33,81,56,33,30.36,30.21,15,3,15,0.00
2013-5-2,71,56,41,45,40,35,85,57,33,30.36,30.24,9,2,9,0.00
2013-5-3,62,54,47,44,39,35,79,58,39,30.33,30.24,11,3,11,0.00
2013-5-4,67,54,42,46,40,37,88,63,38,30.27,30.12,11,2,11,0.00
2013-5-5,61,50,42,41,38,36,84,64,45,30.18,30.12,10,2,10,0.00
2013-5-6,66,55,47,52,47,41,89,76,56,30.15,30.03,11,2,11,0.00
2013-5-7,70,59,51,59,54,48,97,86,65,30.06,29.94,10,2,10,0.00
2013-5-8,74,63,57,66,57,51,97,83,51,29.97,29.83,12,2,12,0.67
2013-5-9,71,62,56,60,55,51,96,78,52,29.88,29.80,11,2,12,0.67
2013-5-10,82,69,53,60,55,51,94,66,35,29.91,29.77,11,2,11,0.67
2013-5-11,79,68,63,67,63,57,95,86,62,29.83,29.59,11,2,11,0.67
2013-5-12,67,61,51,64,44,27,95,58,30,29.85,29.56,17,3,17,0.67
2013-5-13,59,51,41,36,30,25,72,45,32,30.00,29.85,13,3,13,0.67
2013-5-14,62,52,39,32,30,27,70,44,29,30.06,29.94,13,2,13,0.67
2013-5-15,75,62,47,57,47,31,79,58,45,30.00,29.59,11,2,11,0.67
2013-5-16,80,69,57,62,58,53,91,70,47,29.74,29.59,9,2,9,0.00
2013-5-17,75,66,54,60,44,41,88,48,33,30.09,29.74,9,2,9,0.00
2013-5-18,69,60,54,55,51,45,92,73,52,30.18,30.09,9,2,9,0.08
2013-5-19,61,59,56,60,58,54,97,95,92,30.18,30.06,8,2,8,0.16
2013-5-20,80,69,61,70,65,60,97,88,65,30.06,29.85,8,1,8,0.00
2013-5-21,85,75,63,72,67,62,96,79,57,29.88,29.74,12,2,12,0.00
2013-5-22,86,72,67,75,68,65,95,86,60,29.80,29.71,9,2,9,0.00
2013-5-23,83,73,67,70,68,65,94,83,59,29.80,29.65,15,4,15,0.16
2013-5-24,68,57,45,65,54,38,96,87,65,29.88,29.59,13,3,13,0.28
2013-5-25,61,52,45,42,38,30,90,62,38,29.94,29.85,15,5,15,0.04
2013-5-26,70,59,50,40,36,30,64,42,29,30.12,29.91,15,4,15,0.00
2013-5-27,74,60,42,45,40,37,82,52,31,30.15,30.03,13,2,13,0.00
2013-5-28,65,60,51,62,55,44,95,83,59,30.12,30.00,8,0,8,0.16
2013-5-29,88,76,59,71,63,58,97,68,43,30.00,29.91,11,2,11,0.00
2013-5-30,92,81,68,70,65,61,90,63,36,30.03,29.94,10,3,10,0.00
2013-5-31,95,81,68,72,65,57,90,61,31,30.03,29.88,11,2,11,0.00
2013-6-1,92,80,68,69,66,64,89,66,41,29.91,29.80,15,4,15,0.00
2013-6-2,92,80,70,70,67,63,89,68,45,29.83,29.68,17,4,17,0.00
2013-6-3,79,73,69,72,67,64,94,84,65,29.77,29.68,8,1,8,0.24
2013-6-4,76,66,59,65,47,43,89,52,33,30.00,29.77,11,2,11,0.00
2013-6-5,78,65,50,55,49,45,84,58,34,30.09,29.97,9,1,9,0.00
2013-6-6,74,66,58,61,57,49,94,75,43,30.03,29.88,11,3,11,0.00
2013-6-7,70,65,62,68,63,59,97,95,90,29.88,29.44,10,2,10,1.57
2013-6-8,78,70,59,68,63,58,97,80,60,29.97,29.41,11,2,11,0.08
2013-6-9,83,67,60,65,60,56,94,80,43,30.06,29.97,9,1,9,0.20
2013-6-10,73,69,66,71,67,62,95,92,79,30.03,29.71,10,2,10,1.22
2013-6-11,83,75,68,70,66,59,95,75,53,29.71,29.56,17,5,17,0.04
2013-6-12,82,74,66,61,58,54,76,58,40,29.74,29.65,11,3,11,0.00
2013-6-13,80,69,61,70,63,55,93,80,61,29.74,29.29,10,3,13,0.71
2013-6-14,73,61,55,63,56,50,94,84,53,29.83,29.38,8,1,9,0.16
2013-6-15,81,64,56,61,56,51,95,78,38,29.91,29.83,12,1,12,0.04
2013-6-16,86,71,59,67,61,56,92,73,47,29.88,29.71,17,3,17,0.04
2013-6-17,87,75,65,69,66,63,93,76,47,29.83,29.74,13,2,13,0.16
2013-6-18,80,68,63,70,64,59,94,88,62,29.80,29.68,13,1,13,0.71
2013-6-19,78,69,61,63,56,47,95,67,36,30.06,29.74,8,2,8,0.04
2013-6-20,82,70,57,62,54,46,89,62,41,30.18,30.06,10,2,10,0.04
2013-6-21,84,64,56,57,54,49,87,72,40,30.21,30.12,8,2,8,0.00
2013-6-22,86,74,58,66,59,54,89,60,42,30.15,30.03,8,2,8,0.04
2013-6-23,87,75,61,71,66,56,95,77,53,30.09,29.94,13,2,13,0.79
2013-6-24,92,77,69,77,71,64,95,83,49,29.97,29.88,10,2,15,0.59
2013-6-25,91,76,67,75,69,64,95,79,48,29.88,29.74,11,2,11,0.04
2013-6-26,91,79,70,72,68,64,91,70,46,29.77,29.65,11,3,11,0.24
2013-6-27,90,79,71,75,72,70,94,81,57,29.71,29.47,10,2,10,0.47
2013-6-28,88,77,71,74,70,68,94,81,55,29.47,29.35,17,3,17,0.04
2013-6-29,88,77,68,72,68,65,95,76,47,29.59,29.38,10,2,10,0.04
2013-6-30,85,75,70,77,72,68,94,88,72,29.80,29.59,10,1,10,0.16
2013-7-1,79,75,72,76,72,70,94,92,89,29.94,29.77,10,2,10,0.43
2013-7-2,86,76,72,77,73,70,94,88,68,30.09,29.94,10,2,10,0.51
2013-7-3,87,77,70,79,73,69,96,89,69,30.15,30.06,9,1,9,0.20
2013-7-4,90,81,74,77,73,71,95,79,56,30.15,30.06,11,3,11,0.04
2013-7-5,92,82,72,77,72,69,93,74,52,30.12,30.00,12,3,12,0.04
2013-7-6,94,84,74,77,73,69,93,72,48,30.06,29.91,11,3,11,0.04
2013-7-7,95,84,74,77,73,67,90,71,49,29.97,29.83,12,3,12,0.04
2013-7-8,89,78,71,73,69,67,89,76,53,29.97,29.88,10,3,10,0.04
2013-7-9,90,79,70,75,71,67,94,78,55,29.97,29.88,8,2,8,0.16
2013-7-10,88,80,72,78,73,70,94,80,61,29.91,29.71,14,3,14,0.04
2013-7-11,85,78,73,74,71,69,92,80,62,29.80,29.71,8,1,8,1.10
2013-7-12,75,72,69,71,68,66,95,86,77,29.94,29.80,15,2,15,0.24
2013-7-13,84,76,69,78,73,68,96,92,78,30.18,29.94,9,0,9,0.47
2013-7-14,90,81,73,77,74,72,96,81,58,30.24,30.15,9,2,9,0.00
2013-7-15,94,84,74,79,74,70,93,74,47,30.15,30.03,9,2,10,0.00
2013-7-16,93,83,74,76,71,64,89,69,41,30.09,30.00,6,1,6,0.00
2013-7-17,94,84,73,75,71,67,91,68,41,30.09,29.97,6,1,6,0.00
2013-7-18,98,85,74,77,74,70,89,70,45,29.97,29.85,8,1,8,0.00
2013-7-19,98,89,78,81,76,74,90,70,49,29.88,29.71,13,3,13,0.00
2013-7-20,94,86,77,76,73,69,80,67,48,29.74,29.62,17,4,17,0.00
2013-7-21,88,78,73,75,71,68,90,81,57,29.83,29.74,6,2,6,0.00
2013-7-22,87,77,72,77,73,69,95,87,69,29.83,29.68,8,1,8,1.06
2013-7-23,88,78,72,76,73,70,95,85,63,29.68,29.47,10,2,10,0.51
2013-7-24,82,76,69,72,67,55,91,74,58,29.80,29.53,8,1,8,0.00
2013-7-25,69,66,65,60,57,54,85,72,62,29.94,29.80,8,2,8,0.00
2013-7-26,83,72,64,66,62,59,88,72,45,29.94,29.88,8,1,8,0.00
2013-7-27,86,74,64,71,64,59,93,73,44,29.94,29.83,14,1,14,0.00
2013-7-28,82,72,67,72,68,64,93,86,68,29.88,29.80,12,2,12,0.63
2013-7-29,84,74,66,70,63,53,96,73,39,30.00,29.85,10,2,10,0.04
2013-7-30,82,71,60,61,58,54,89,66,41,30.09,30.00,10,1,10,0.00
2013-7-31,84,72,61,65,60,55,90,69,41,30.06,29.94,6,1,6,0.00
2013-8-1,71,70,68,69,66,62,95,88,73,29.94,29.71,8,1,8,0.67
2013-8-2,85,75,68,69,66,60,96,75,47,29.83,29.71,8,2,8,0.00
2013-8-3,78,72,67,69,66,64,93,83,65,29.83,29.77,8,2,8,0.00
2013-8-4,80,71,62,65,58,51,93,68,41,29.88,29.74,10,1,10,0.00
2013-8-5,77,68,58,59,53,48,81,61,37,29.97,29.88,8,1,8,0.00
2013-8-6,82,70,58,64,59,54,89,70,41,30.00,29.94,8,1,8,0.00
2013-8-7,79,72,68,68,66,63,91,82,65,30.03,29.94,10,2,10,0.00
2013-8-8,86,76,70,77,71,68,95,85,64,29.97,29.88,10,2,10,0.51
2013-8-9,86,80,74,78,74,71,93,85,71,29.91,29.71,17,3,17,0.04
2013-8-10,82,76,70,73,67,61,94,75,50,29.94,29.77,9,0,9,0.00
2013-8-11,84,74,64,66,62,54,90,69,45,30.03,29.91,8,1,8,0.00
2013-8-12,80,74,68,71,69,66,93,86,73,29.94,29.83,6,1,6,0.00
2013-8-13,80,74,70,74,70,68,96,89,69,29.83,29.59,8,1,8,1.30
2013-8-14,73,68,60,70,52,46,89,59,45,29.94,29.65,13,2,13,0.00
2013-8-15,76,66,54,56,52,47,89,65,37,30.06,29.94,9,1,9,0.00
2013-8-16,80,68,55,60,54,51,89,66,39,30.12,30.03,6,1,6,0.00
2013-8-17,81,72,57,62,55,52,89,57,40,30.18,30.09,8,1,8,0.00
2013-8-18,77,66,62,65,60,55,89,82,51,30.15,30.03,8,0,8,0.00
2013-8-19,77,70,61,66,62,57,93,77,54,30.06,29.94,9,2,10,0.00
2013-8-20,86,74,63,70,65,61,95,76,46,30.03,29.97,9,1,9,0.00
2013-8-21,88,77,65,72,66,59,93,72,40,30.09,29.94,10,1,10,0.00
2013-8-22,84,74,70,74,70,67,94,88,71,29.97,29.80,12,1,12,0.16
2013-8-23,78,72,65,68,65,57,94,79,50,29.97,29.77,6,0,8,0.00
2013-8-24,78,69,61,62,56,48,90,67,36,30.24,29.97,8,1,8,0.00
2013-8-25,80,68,55,61,55,52,90,66,40,30.30,30.15,10,1,10,0.00
2013-8-26,85,75,62,66,62,54,88,66,49,30.18,29.83,15,3,19,0.00
2013-8-27,86,77,70,70,67,65,89,73,53,29.83,29.74,10,2,10,0.00
2013-8-28,78,73,68,75,70,65,94,91,82,29.80,29.74,6,0,6,0.12
2013-8-29,80,72,68,70,68,64,96,85,64,29.91,29.77,9,2,9,0.00
2013-8-30,83,74,67,72,68,64,94,84,67,29.91,29.77,13,2,13,0.00
2013-8-31,88,77,69,75,71,67,95,82,63,29.80,29.68,12,3,12,0.00
2013-9-1,90,78,72,76,72,65,94,83,53,29.74,29.65,11,2,13,0.00
2013-9-2,78,75,71,74,72,69,95,92,85,29.68,29.62,6,0,6,0.28
2013-9-3,81,73,66,73,66,56,96,79,47,29.80,29.62,10,1,10,0.00
2013-9-4,79,69,60,60,57,52,89,67,42,29.91,29.80,11,2,14,0.00
2013-9-5,78,68,60,62,55,45,90,66,42,30.03,29.85,9,1,10,0.00
2013-9-6,70,62,53,49,46,40,82,58,34,30.15,30.03,8,1,9,0.00
2013-9-7,77,63,48,57,49,44,86,64,36,30.03,29.83,10,1,13,0.00
2013-9-8,81,71,61,64,58,43,90,66,46,29.97,29.74,12,2,13,0.00
2013-9-9,76,65,54,59,52,44,84,64,45,30.12,29.97,9,2,9,0.00
2013-9-10,87,76,64,73,68,59,90,80,62,30.09,29.97,10,2,10,0.00
2013-9-11,93,81,72,77,72,70,93,77,52,30.03,29.88,11,2,11,0.00
2013-9-12,88,77,71,74,70,65,90,78,62,29.88,29.59,11,2,11,0.00
2013-9-13,75,69,60,68,60,50,95,75,47,29.77,29.53,11,2,13,0.16
2013-9-14,67,58,50,50,46,44,85,65,47,30.03,29.77,10,2,10,0.00
2013-9-15,72,58,46,53,47,42,87,68,42,30.12,30.00,8,1,9,0.00
2013-9-16,69,62,57,60,55,50,92,81,58,30.12,29.94,8,0,8,0.00
2013-9-17,63,56,47,50,41,37,80,59,42,30.33,30.12,10,2,10,0.00
2013-9-18,69,56,42,49,44,38,85,67,43,30.27,30.09,6,1,6,0.00
2013-9-19,73,60,45,56,49,42,87,71,43,30.12,29.97,9,1,9,0.00
2013-9-20,78,63,51,61,53,48,88,73,44,30.00,29.88,8,1,8,0.00
2013-9-21,80,66,52,67,58,49,93,78,46,29.91,29.59,12,2,12,0.43
2013-9-22,68,63,54,66,53,42,95,72,45,29.83,29.56,13,2,13,0.79
2013-9-23,66,56,47,45,41,39,78,58,44,29.94,29.83,9,2,9,0.00
2013-9-24,69,56,45,51,44,40,85,68,44,29.97,29.80,10,2,10,0.00
2013-9-25,70,57,47,51,47,43,87,72,42,29.88,29.77,8,1,8,0.00
2013-9-26,71,59,49,59,52,46,91,79,53,30.00,29.83,8,1,8,0.00
2013-9-27,69,62,56,58,53,48,94,75,49,30.15,30.00,6,1,6,0.00
2013-9-28,71,62,54,56,51,47,90,71,44,30.21,30.12,9,2,9,0.00
2013-9-29,70,59,50,60,51,47,92,75,47,30.12,29.97,8,1,8,0.00
2013-9-30,71,59,48,57,50,46,93,76,46,29.97,29.88,7,1,7,0.00
2013-10-1,78,63,50,60,55,48,93,77,49,29.94,29.83,12,1,12,0.00
2013-10-2,80,68,54,64,58,52,93,74,48,29.91,29.83,13,2,13,0.00
2013-10-3,79,68,57,62,57,54,92,72,45,30.03,29.91,5,1,5,0.00
2013-10-4,84,71,59,68,61,56,92,73,47,29.97,29.85,10,1,10,0.00
2013-10-5,81,70,64,69,65,62,94,84,65,29.97,29.91,8,2,8,0.00
2013-10-6,79,70,66,70,66,63,96,89,72,29.97,29.88,8,2,8,0.00
2013-10-7,79,68,59,72,65,51,96,88,71,29.91,29.68,17,3,17,0.16
2013-10-8,66,58,51,52,48,43,88,71,45,30.21,29.91,7,1,7,0.00
2013-10-9,62,57,52,50,48,44,86,72,60,30.27,30.15,12,3,12,0.00
2013-10-10,61,58,55,59,55,49,95,89,71,30.15,29.91,9,3,9,0.12
2013-10-11,63,62,60,62,60,58,95,93,90,29.94,29.85,11,3,11,0.51
2013-10-12,69,64,60,61,54,47,92,72,54,30.12,29.94,15,4,15,0.00
2013-10-13,66,60,51,56,50,45,86,72,52,30.27,30.12,12,4,12,0.00
2013-10-14,66,56,47,54,49,44,93,78,53,30.27,30.15,8,1,8,0.00
2013-10-15,70,56,46,56,46,42,94,73,37,30.15,30.00,6,1,6,0.00
2013-10-16,69,60,51,60,56,48,95,87,69,30.00,29.83,5,1,5,0.00
2013-10-17,72,64,61,63,61,58,95,88,69,29.83,29.62,8,1,8,0.00
2013-10-18,66,60,48,63,45,39,90,59,44,29.91,29.62,15,4,15,0.00
2013-10-19,64,53,42,55,45,38,90,76,52,29.91,29.68,8,1,8,0.00
2013-10-20,61,53,43,54,39,34,88,61,38,30.00,29.68,13,3,13,0.00
2013-10-21,66,51,37,47,38,33,85,65,37,30.06,29.88,10,1,10,0.00
2013-10-22,68,55,42,53,44,38,90,68,47,29.88,29.68,11,2,11,0.00
2013-10-23,54,48,42,44,37,32,78,67,54,29.74,29.53,8,1,8,0.00
2013-10-24,54,45,39,34,30,24,76,57,39,29.97,29.68,16,4,16,0.00
2013-10-25,54,44,36,33,29,25,75,56,41,30.15,29.94,11,3,11,0.00
2013-10-26,57,43,30,37,30,25,81,61,38,30.15,29.83,15,2,15,0.00
2013-10-27,57,48,38,35,31,28,72,53,39,30.06,29.80,13,2,13,0.00
2013-10-28,61,46,32,38,33,27,81,63,40,30.21,30.06,11,1,11,0.00
2013-10-29,59,47,37,42,37,32,84,70,48,30.30,30.21,9,1,9,0.00
2013-10-30,58,48,40,54,44,36,93,87,79,30.27,30.09,5,0,5,0.00
2013-10-31,70,61,52,62,56,50,95,86,69,30.12,29.74,13,2,13,0.00
2013-11-1,69,65,58,63,59,54,94,82,63,29.74,29.47,17,4,17,0.12
2013-11-2,68,58,53,58,49,37,97,74,44,29.68,29.53,10,1,10,0.00
2013-11-3,54,47,35,41,32,16,78,56,37,30.36,29.68,13,2,13,0.00
2013-11-4,47,38,32,25,20,15,66,48,38,30.56,30.36,8,2,8,0.00
2013-11-5,58,46,34,40,35,25,83,67,49,30.56,30.39,9,1,9,0.00
2013-11-6,64,48,35,55,41,31,93,78,50,30.39,29.97,9,2,9,0.00
2013-11-7,63,56,39,60,51,33,93,85,71,29.97,29.68,12,3,12,0.04
2013-11-8,50,43,34,36,27,23,83,54,41,30.15,29.85,17,4,17,0.00
2013-11-9,52,41,30,31,27,23,78,57,40,30.21,29.91,10,2,10,0.00
2013-11-10,62,48,34,38,30,24,85,54,36,30.00,29.77,24,4,24,0.00
2013-11-11,56,49,40,32,27,22,49,43,37,30.15,29.88,13,4,13,0.00
2013-11-12,50,38,29,33,23,12,84,54,44,30.24,29.85,12,3,12,0.00
2013-11-13,39,32,27,15,12,10,53,43,32,30.30,30.24,13,3,13,0.00
2013-11-14,54,39,28,22,11,-12,60,38,7,30.24,30.09,17,3,18,0.00
2013-11-15,58,40,27,34,26,15,75,57,36,30.18,30.09,8,1,8,0.00
2013-11-16,57,46,35,48,42,28,91,85,70,30.24,30.15,5,0,5,0.04
2013-11-17,66,54,48,62,52,45,95,93,80,30.15,29.68,8,0,8,0.00
2013-11-18,66,60,51,63,42,25,95,56,31,29.71,29.53,17,4,17,0.16
2013-11-19,51,44,32,25,21,16,52,41,37,30.27,29.71,15,4,19,0.16
2013-11-20,44,34,26,21,15,8,67,47,23,30.50,30.27,9,1,9,0.16
2013-11-21,54,43,29,40,30,14,74,59,50,30.50,30.30,11,1,11,0.16
2013-11-22,57,52,46,51,47,39,92,84,73,30.30,29.83,12,3,12,0.16
2013-11-23,53,44,32,50,29,13,91,54,39,29.97,29.85,19,5,19,0.16
2013-11-24,32,26,23,13,-3,-17,45,29,13,30.33,29.94,20,6,20,0.00
2013-11-25,35,28,21,14,8,-1,50,43,35,30.45,30.27,8,3,10,0.00
2013-11-26,54,38,31,53,26,12,96,65,45,30.27,29.59,11,2,11,0.31
2013-11-27,63,44,33,62,38,17,96,79,51,29.77,29.26,16,6,17,1.02
2013-11-28,36,32,28,20,15,12,64,50,40,30.39,29.77,17,4,17,0.00
2013-11-29,40,31,24,23,17,13,76,57,42,30.65,30.39,9,1,9,0.00
2013-11-30,40,30,23,26,16,9,68,56,50,30.65,30.27,8,2,8,0.00
2013-12-1,49,40,30,32,29,23,78,64,49,30.27,29.91,8,1,8,0.00
2013-12-2,51,39,32,34,29,25,79,68,45,29.91,29.80,4,0,4,0.00
2013-12-3,52,41,33,40,33,28,88,74,51,29.94,29.77,8,1,8,0.00
2013-12-4,54,44,33,45,36,28,87,75,59,30.03,29.91,4,0,4,0.00
2013-12-5,60,55,49,58,53,45,96,93,87,30.00,29.85,9,1,9,0.00
2013-12-6,62,50,39,61,48,37,97,95,91,30.03,29.77,8,2,10,0.51
2013-12-7,40,36,31,37,28,18,95,74,55,30.42,29.97,11,2,11,0.08
2013-12-8,32,28,26,31,18,13,94,65,55,30.50,30.24,6,1,6,0.00
2013-12-9,38,36,32,37,35,31,98,97,94,30.24,29.88,8,2,8,0.55
2013-12-10,34,32,25,33,30,21,97,92,83,30.09,29.80,8,1,8,0.08
2013-12-11,33,26,20,23,17,14,86,69,48,30.30,30.09,13,1,13,0.00
2013-12-12,27,23,18,17,9,5,79,58,42,30.30,30.12,9,2,9,0.00
2013-12-13,36,27,18,16,12,5,64,51,42,30.24,30.06,11,2,12,0.00
2013-12-14,45,32,28,40,26,16,98,79,62,30.33,29.59,13,2,13,0.47
2013-12-15,49,36,31,48,32,17,98,89,52,29.80,29.41,12,3,12,0.12
2013-12-16,33,27,22,21,10,5,63,48,41,30.15,29.77,17,4,17,0.00
2013-12-17,35,28,23,32,21,9,90,76,51,30.12,29.83,6,0,6,0.04
2013-12-18,37,29,22,21,18,15,83,65,47,30.09,29.85,15,2,15,0.00
2013-12-19,46,31,23,28,22,15,79,69,48,30.12,29.97,8,2,8,0.00
2013-12-20,54,44,32,47,33,27,88,68,45,30.00,29.88,10,2,10,0.00
2013-12-21,66,55,43,58,49,42,96,81,59,29.91,29.80,11,2,11,0.00
2013-12-22,71,65,62,64,60,56,90,84,74,29.88,29.71,22,5,22,0.00
2013-12-23,63,56,43,62,53,32,97,90,67,30.06,29.80,10,2,10,0.51
2013-12-24,43,38,33,33,21,18,69,52,45,30.09,30.00,12,4,12,0.00
2013-12-25,29,28,24,13,10,6,54,46,43,30.45,30.33,8,2,8,0.00
2013-12-26,39,30,23,23,19,11,75,62,51,30.33,30.09,13,1,13,0.00
2013-12-27,44,31,22,23,19,16,80,62,40,30.30,30.18,13,2,13,0.00
2013-12-28,56,38,24,31,24,17,80,58,37,30.24,30.00,15,2,15,0.00
2013-12-29,50,41,34,50,37,24,97,85,62,30.00,29.32,13,2,13,0.67
2013-12-30,46,38,30,39,28,14,95,69,50,30.09,29.65,13,3,13,0.67
2013-12-31,38,29,23,21,13,7,57,50,44,30.24,29.97,15,3,15,0.00
2014-1-1,40,31,24,23,14,7,64,50,44,30.33,30.09,9,2,9,0.00
2014-1-2,36,30,21,29,25,18,88,79,64,30.12,29.53,13,3,13,0.00